New Castle, PA

7:39 PM EDT on July 25, 2016 (GMT -0400)
New Castle Municipal

Weather History for KUCP - October, 2011

Change the Weather History Date:

Tuesday, October 11, 2011

  Actual Average Record
Temperature  
Mean Temperature 60 °F -  
Max Temperature 75 °F 65 °F 85 °F (1949)
Min Temperature 46 °F 41 °F 23 °F (1964)
Degree Days  
Heating Degree Days 4    
Growing Degree Days 10 (Base 50)    
Moisture  
Dew Point 51 °F    
Average Humidity 91    
Maximum Humidity 100    
Minimum Humidity 48    
Precipitation  
Precipitation 0.00 in - - ()
Sea Level Pressure  
Sea Level Pressure 30.19 in    
Wind  
Wind Speed 1 mph (ESE)    
Max Wind Speed 9 mph    
Max Gust Speed -    
Visibility 4 miles    
Events Fog    
Averages and records for this station are not official NWS values.
T = Trace of Precipitation, MM = Missing Value Source: NWS Daily Summary

Daily Weather History Graph

Daily Weather History Graph

Search for Another Location

Airport or City:

Trip Planner

Search our weather history database for the weather conditions in past years. The results will help you decide how hot, cold, wet, or windy it might be!

Date:

Astronomy

Oct. 11, 2011 Rise Set
Actual Time 7:28 AM EDT 6:47 PM EDT
Civil Twilight 7:00 AM EDT 7:15 PM EDT
Nautical Twilight 6:29 AM EDT 7:47 PM EDT
Astronomical Twilight 5:57 AM EDT 8:18 PM EDT
Moon 6:18 PM EDT (10/11) 7:05 AM EDT (10/11)
Length of Visible Light 12h 14m
Length of Day
11h 19m
Full, 100% of the Moon is Illuminated
Oct 11
Full
Oct 11
Full
Oct 19
Last Quarter
Oct 26
New
Nov 2
First Quarter

Hourly Weather History & Observations

Time (EDT) Temp. Dew Point Humidity Pressure Visibility Wind Dir Wind Speed Gust Speed Precip Events Conditions
12:14 AM 53.6 °F 53.6 °F 100% 30.21 in 1.2 mi Calm Calm - N/A   Clear
12:16 AM 51.8 °F 51.8 °F 100% 30.21 in 2.5 mi Calm Calm - N/A   Clear
12:23 AM 51.8 °F 51.8 °F 100% 30.21 in 0.8 mi Calm Calm - N/A   Clear
12:26 AM 51.8 °F 50.0 °F 94% 30.21 in 0.2 mi Calm Calm - N/A Fog Fog
12:36 AM 51.8 °F 51.8 °F 100% 30.21 in 0.2 mi Calm Calm - N/A Fog Fog
12:56 AM 50.9 °F 50.9 °F 100% 30.25 in 1.8 mi Calm Calm - N/A   Clear
12:59 AM 50.0 °F 48.2 °F 94% 30.21 in 1.0 mi Calm Calm - N/A   Clear
1:01 AM 50.0 °F 50.0 °F 100% 30.21 in 0.5 mi Calm Calm - N/A Fog Fog
1:17 AM 50.0 °F 48.2 °F 94% 30.21 in 1.0 mi Calm Calm - N/A   Clear
1:23 AM 51.8 °F 51.8 °F 100% 30.21 in 1.8 mi Calm Calm - N/A   Clear
1:30 AM 51.8 °F 50.0 °F 94% 30.20 in 1.0 mi Calm Calm - N/A   Clear
1:35 AM 51.8 °F 51.8 °F 100% 30.20 in 0.5 mi Calm Calm - N/A Fog Fog
1:43 AM 51.8 °F 51.8 °F 100% 30.20 in 1.0 mi Calm Calm - N/A   Clear
1:45 AM 51.8 °F 51.8 °F 100% 30.20 in 1.8 mi Calm Calm - N/A   Clear
1:47 AM 51.8 °F 51.8 °F 100% 30.20 in 3.0 mi Calm Calm - N/A   Clear
1:56 AM 50.9 °F 50.9 °F 100% 30.24 in 4.0 mi Calm Calm - N/A   Clear
2:06 AM 51.8 °F 51.8 °F 100% 30.20 in 2.0 mi Calm Calm - N/A   Clear
2:08 AM 51.8 °F 51.8 °F 100% 30.20 in 1.2 mi Calm Calm - N/A   Clear
2:10 AM 50.0 °F 50.0 °F 100% 30.20 in 0.5 mi Calm Calm - N/A Fog Fog
2:21 AM 51.8 °F 51.8 °F 100% 30.20 in 1.2 mi Calm Calm - N/A   Clear
2:26 AM 48.2 °F 48.2 °F 100% 30.20 in 0.8 mi Calm Calm - N/A   Clear
2:30 AM 48.2 °F 48.2 °F 100% 30.20 in 0.2 mi Calm Calm - N/A Fog Fog
2:42 AM 46.4 °F 46.4 °F 100% 30.20 in 0.8 mi Calm Calm - N/A   Clear
2:46 AM 46.4 °F 46.4 °F 100% 30.20 in 1.2 mi Calm Calm - N/A   Clear
2:48 AM 46.4 °F 46.4 °F 100% 30.20 in 2.0 mi Calm Calm - N/A   Clear
2:56 AM 47.8 °F 47.8 °F 100% 30.24 in 1.8 mi Calm Calm - N/A   Clear
3:13 AM 48.2 °F 48.2 °F 100% 30.19 in 1.0 mi Calm Calm - N/A   Clear
3:24 AM 48.2 °F 48.2 °F 100% 30.19 in 1.5 mi Calm Calm - N/A   Clear
3:33 AM 50.0 °F 50.0 °F 100% 30.18 in 3.0 mi Calm Calm - N/A   Clear
3:56 AM 47.8 °F 47.8 °F 100% 30.22 in 9.0 mi Calm Calm - N/A   Clear
4:56 AM 47.8 °F 47.8 °F 100% 30.22 in 6.0 mi Calm Calm - N/A   Clear
5:21 AM 46.4 °F 46.4 °F 100% 30.18 in 1.8 mi Calm Calm - N/A   Clear
5:30 AM 46.4 °F 46.4 °F 100% 30.18 in 3.0 mi Calm Calm - N/A   Clear
6:18 AM 46.4 °F 46.4 °F 100% 30.18 in 1.2 mi Calm Calm - N/A   Clear
6:21 AM 46.4 °F 46.4 °F 100% 30.18 in 0.8 mi Calm Calm - N/A   Clear
6:30 AM 46.4 °F 46.4 °F 100% 30.18 in 0.5 mi Calm Calm - N/A Fog Fog
6:37 AM 48.2 °F 48.2 °F 100% 30.18 in 0.2 mi Calm Calm - N/A Fog Fog
6:45 AM 48.2 °F 48.2 °F 100% 30.18 in 0.8 mi Calm Calm - N/A   Clear
6:56 AM 46.9 °F 46.9 °F 100% 30.23 in 4.0 mi Calm Calm - N/A   Clear
7:11 AM 48.2 °F 48.2 °F 100% 30.19 in 1.0 mi Calm Calm - N/A   Clear
7:14 AM 48.2 °F 48.2 °F 100% 30.19 in 0.5 mi Calm Calm - N/A Fog Fog
7:26 AM 48.2 °F 48.2 °F 100% 30.18 in 1.5 mi Calm Calm - N/A   Clear
7:56 AM 46.9 °F 46.9 °F 100% 30.24 in 3.0 mi Calm Calm - N/A   Clear
9:56 AM 56.8 °F 56.8 °F 100% 30.23 in 10.0 mi Calm Calm - N/A   Clear
10:56 AM 68.0 °F 54.9 °F 63% 30.21 in 10.0 mi ESE 6.9 mph - N/A   Partly Cloudy
11:56 AM 74.8 °F 54.9 °F 50% 30.19 in 10.0 mi SE 9.2 mph - N/A   Clear
12:56 PM 75.9 °F 54.9 °F 48% 30.18 in 10.0 mi East 6.9 mph - N/A   Clear
1:56 PM 73.9 °F 52.9 °F 48% 30.16 in 10.0 mi SE 6.9 mph - N/A   Scattered Clouds
3:56 PM 72.9 °F 52.9 °F 49% 30.14 in 10.0 mi SSE 5.8 mph - N/A   Clear
4:56 PM 70.9 °F 55.9 °F 59% 30.13 in 10.0 mi Calm Calm - N/A   Clear
5:56 PM 68.9 °F 55.9 °F 63% 30.12 in 10.0 mi East 3.5 mph - N/A   Clear
6:56 PM 65.8 °F 54.9 °F 68% 30.12 in 10.0 mi East 4.6 mph - N/A   Clear
7:56 PM 64.9 °F 54.9 °F 70% 30.12 in 10.0 mi East 5.8 mph - N/A   Clear
8:56 PM 63.9 °F 54.9 °F 72% 30.11 in 10.0 mi East 4.6 mph - N/A   Clear
9:56 PM 63.9 °F 54.9 °F 72% 30.11 in 10.0 mi ESE 4.6 mph - N/A   Clear
10:56 PM 63.0 °F 54.9 °F 75% 30.10 in 10.0 mi East 6.9 mph - N/A   Clear
11:56 PM 63.0 °F 54.9 °F 75% 30.10 in 10.0 mi ESE 4.6 mph - N/A   Scattered Clouds